OCN2WK LDSP-EDDF

Flight info

Callsign OCN2WK
Flight time 1h 34m
Altitude 36000
Route ZDA DCT RAVNA DCT RJK DCT SIMBA DCT AKINI T161 DEBHI DEBHI1B
Aircraft A320/M-SDE3FGHIRWY/LB1

Departure

Time 2026-04-17 11:04
Airport Split Saint Jerome Airport (LDSP)

Arrival

Time 2026-04-17 12:38
Airport Frankfurt Main Airport (EDDF)
Time Latitude Longitude Altitude Speed Heading
2026-04-17 10:22 43.53763 16.29936 68 ft 0 kts 116°
2026-04-17 10:44 43.53769 16.29917 61 ft 4 kts 111°
2026-04-17 10:44 43.53779 16.29884 62 ft 4 kts 105°
2026-04-17 10:45 43.53782 16.29848 63 ft 4 kts 77°
2026-04-17 10:45 43.53773 16.29819 62 ft 1 kts 53°
2026-04-17 10:45 43.53770 16.29814 63 ft 0 kts 53°
2026-04-17 10:58 43.53809 16.29885 65 ft 15 kts 53°
2026-04-17 10:58 43.53872 16.30002 61 ft 15 kts 53°
2026-04-17 10:59 43.53959 16.30078 66 ft 15 kts 19°
2026-04-17 10:59 43.54062 16.30131 57 ft 15 kts 25°
2026-04-17 10:59 43.54133 16.30244 54 ft 12 kts 68°
2026-04-17 10:59 43.54151 16.30244 56 ft 3 kts 255°
2026-04-17 11:00 43.54106 16.30167 58 ft 12 kts 229°
2026-04-17 11:00 43.54049 16.30072 57 ft 17 kts 231°
2026-04-17 11:00 43.53977 16.29947 68 ft 15 kts 232°
2026-04-17 11:00 43.53905 16.29819 69 ft 21 kts 233°
2026-04-17 11:01 43.53809 16.29642 70 ft 23 kts 233°
2026-04-17 11:01 43.53712 16.29465 83 ft 24 kts 232°
2026-04-17 11:01 43.53611 16.29286 85 ft 24 kts 232°
2026-04-17 11:01 43.53503 16.29096 83 ft 26 kts 231°
2026-04-17 11:02 43.53391 16.28899 82 ft 27 kts 232°
2026-04-17 11:02 43.53280 16.28704 83 ft 21 kts 232°
2026-04-17 11:02 43.53208 16.28614 67 ft 11 kts 239°
2026-04-17 11:02 43.53222 16.28599 75 ft 2 kts 14°
2026-04-17 11:03 43.53242 16.28620 67 ft 12 kts 46°
2026-04-17 11:03 43.53410 16.28921 83 ft 76 kts 53°
2026-04-17 11:03 43.53860 16.29738 73 ft 136 kts 52°
2026-04-17 11:03 43.54502 16.30921 365 ft 160 kts 55°
2026-04-17 11:04 43.55073 16.32241 1044 ft 161 kts 68°
2026-04-17 11:04 43.55458 16.33720 1653 ft 172 kts 79°
2026-04-17 11:04 43.55308 16.35404 2198 ft 187 kts 115°
2026-04-17 11:04 43.54358 16.36648 2885 ft 197 kts 154°
2026-04-17 11:05 43.52998 16.37030 3517 ft 201 kts 165°
2026-04-17 11:05 43.51702 16.37688 4125 ft 199 kts 149°
2026-04-17 11:05 43.50464 16.38553 4731 ft 201 kts 148°
2026-04-17 11:05 43.49222 16.39443 5312 ft 203 kts 148°
2026-04-17 11:06 43.48385 16.40049 5508 ft 206 kts 149°
2026-04-17 11:06 43.47085 16.40895 5505 ft 208 kts 163°
2026-04-17 11:06 43.45649 16.40754 5509 ft 215 kts 203°
2026-04-17 11:06 43.44472 16.39351 5667 ft 239 kts 232°
2026-04-17 11:07 43.43402 16.37443 5996 ft 264 kts 232°
2026-04-17 11:07 43.42249 16.35352 6481 ft 282 kts 233°
2026-04-17 11:07 43.41054 16.33189 7271 ft 285 kts 233°
2026-04-17 11:07 43.39844 16.31006 8106 ft 289 kts 233°
2026-04-17 11:08 43.38618 16.28796 8954 ft 293 kts 234°
2026-04-17 11:08 43.37375 16.26558 9803 ft 296 kts 234°
2026-04-17 11:08 43.36320 16.24129 10528 ft 298 kts 252°
2026-04-17 11:08 43.35991 16.21332 11225 ft 298 kts 275°
2026-04-17 11:09 43.36466 16.18583 11969 ft 297 kts 297°
2026-04-17 11:09 43.37656 16.16292 12707 ft 296 kts 319°
2026-04-17 11:09 43.39258 16.14499 13459 ft 298 kts 323°
2026-04-17 11:10 43.42544 16.10929 14807 ft 304 kts 323°
2026-04-17 11:10 43.44206 16.09112 15460 ft 307 kts 323°
2026-04-17 11:10 43.45883 16.07271 16123 ft 310 kts 323°
2026-04-17 11:10 43.47573 16.05415 16775 ft 312 kts 323°
2026-04-17 11:11 43.49279 16.03541 17437 ft 315 kts 323°
2026-04-17 11:11 43.50999 16.01649 18086 ft 318 kts 323°
2026-04-17 11:11 43.52731 15.99740 18678 ft 320 kts 323°
2026-04-17 11:11 43.54479 15.97814 19234 ft 323 kts 322°
2026-04-17 11:12 43.56240 15.95871 19775 ft 325 kts 322°
2026-04-17 11:12 43.58011 15.93918 20312 ft 327 kts 322°
2026-04-17 11:12 43.59798 15.91947 20882 ft 330 kts 322°
2026-04-17 11:12 43.61594 15.89965 21420 ft 332 kts 322°
2026-04-17 11:13 43.63402 15.87963 21958 ft 334 kts 322°
2026-04-17 11:13 43.65219 15.85949 22480 ft 337 kts 322°
2026-04-17 11:13 43.67053 15.83918 23017 ft 339 kts 322°
2026-04-17 11:13 43.68920 15.81851 23257 ft 350 kts 322°
2026-04-17 11:14 43.70859 15.79707 23405 ft 363 kts 322°
2026-04-17 11:14 43.72861 15.77487 23548 ft 375 kts 322°
2026-04-17 11:14 43.74925 15.75195 23691 ft 386 kts 322°
2026-04-17 11:14 43.77007 15.72877 23969 ft 391 kts 322°
2026-04-17 11:15 43.79132 15.70508 24342 ft 394 kts 322°
2026-04-17 11:15 43.81269 15.68126 24736 ft 396 kts 322°
2026-04-17 11:15 43.83419 15.65732 25131 ft 397 kts 322°
2026-04-17 11:15 43.85577 15.63328 25517 ft 399 kts 322°
2026-04-17 11:16 43.87741 15.60915 25918 ft 400 kts 322°
2026-04-17 11:16 43.89911 15.58488 26307 ft 402 kts 322°
2026-04-17 11:16 43.92089 15.56048 26682 ft 403 kts 322°
2026-04-17 11:16 43.94274 15.53601 27061 ft 405 kts 322°
2026-04-17 11:17 43.96466 15.51145 27437 ft 406 kts 322°
2026-04-17 11:17 43.98667 15.48679 27812 ft 407 kts 322°
2026-04-17 11:17 44.00874 15.46197 28168 ft 409 kts 322°
2026-04-17 11:17 44.03087 15.43700 28528 ft 411 kts 322°
2026-04-17 11:18 44.05311 15.41190 28875 ft 412 kts 322°
2026-04-17 11:18 44.07544 15.38673 29221 ft 414 kts 322°
2026-04-17 11:18 44.09785 15.36141 29553 ft 416 kts 322°
2026-04-17 11:18 44.12025 15.33585 29888 ft 417 kts 322°
2026-04-17 11:19 44.14258 15.31007 30213 ft 418 kts 322°
2026-04-17 11:19 44.16495 15.28415 30485 ft 419 kts 322°
2026-04-17 11:19 44.18741 15.25813 30751 ft 420 kts 321°
2026-04-17 11:19 44.20990 15.23204 31010 ft 422 kts 321°
2026-04-17 11:20 44.23251 15.20584 31265 ft 423 kts 321°
2026-04-17 11:20 44.25512 15.17960 31605 ft 422 kts 321°
2026-04-17 11:20 44.27764 15.15341 31956 ft 421 kts 321°
2026-04-17 11:20 44.30015 15.12728 32315 ft 420 kts 321°
2026-04-17 11:21 44.32264 15.10120 32647 ft 420 kts 321°
2026-04-17 11:21 44.34504 15.07516 32963 ft 419 kts 321°
2026-04-17 11:21 44.36737 15.04914 33319 ft 418 kts 321°
2026-04-17 11:21 44.38963 15.02313 33677 ft 417 kts 321°
2026-04-17 11:22 44.41186 14.99713 34022 ft 416 kts 321°
2026-04-17 11:22 44.43402 14.97119 34336 ft 415 kts 321°
2026-04-17 11:22 44.45612 14.94531 34611 ft 414 kts 321°
2026-04-17 11:22 44.47820 14.91941 34864 ft 414 kts 321°
2026-04-17 11:23 44.50030 14.89348 35111 ft 414 kts 321°
2026-04-17 11:23 44.52347 14.86957 35341 ft 414 kts 329°
2026-04-17 11:23 44.54913 14.85150 35560 ft 414 kts 339°
2026-04-17 11:23 44.57658 14.83922 35769 ft 414 kts 343°
2026-04-17 11:24 44.60426 14.82796 35979 ft 415 kts 343°
2026-04-17 11:24 44.63192 14.81651 36101 ft 414 kts 342°
2026-04-17 11:24 44.68692 14.79338 36131 ft 411 kts 342°
2026-04-17 11:25 44.74175 14.77030 36137 ft 411 kts 342°
2026-04-17 11:25 44.79658 14.74736 36129 ft 411 kts 342°
2026-04-17 11:26 44.85140 14.72451 36134 ft 411 kts 342°
2026-04-17 11:26 44.90617 14.70157 36148 ft 411 kts 342°
2026-04-17 11:27 44.96089 14.67846 36145 ft 411 kts 342°
2026-04-17 11:27 45.01528 14.65546 36137 ft 411 kts 342°
2026-04-17 11:28 45.07002 14.63231 36142 ft 411 kts 342°
2026-04-17 11:28 45.12475 14.60912 36134 ft 411 kts 342°
2026-04-17 11:29 45.17950 14.58589 36140 ft 411 kts 342°
2026-04-17 11:29 45.23425 14.56258 36148 ft 411 kts 341°
2026-04-17 11:30 45.28843 14.53684 36141 ft 410 kts 340°
2026-04-17 11:30 45.34224 14.50976 36150 ft 410 kts 340°
2026-04-17 11:31 45.39612 14.48290 36142 ft 410 kts 340°
2026-04-17 11:31 45.45011 14.45641 36170 ft 410 kts 340°
2026-04-17 11:32 45.50413 14.43004 36195 ft 410 kts 340°
2026-04-17 11:32 45.55808 14.40355 36188 ft 410 kts 340°
2026-04-17 11:33 45.61197 14.37698 36194 ft 410 kts 340°
2026-04-17 11:33 45.66586 14.35029 36207 ft 410 kts 340°
2026-04-17 11:34 45.71971 14.32355 36205 ft 409 kts 340°
2026-04-17 11:34 45.77353 14.29687 36202 ft 409 kts 340°
2026-04-17 11:35 45.82737 14.27014 36182 ft 409 kts 340°
2026-04-17 11:35 45.88118 14.24334 36191 ft 409 kts 340°
2026-04-17 11:36 45.93501 14.21645 36196 ft 409 kts 340°
2026-04-17 11:36 45.98878 14.18950 36201 ft 409 kts 340°
2026-04-17 11:37 46.04258 14.16241 36188 ft 409 kts 340°
2026-04-17 11:37 46.09638 14.13546 36208 ft 409 kts 340°
2026-04-17 11:38 46.15013 14.10846 36196 ft 409 kts 340°
2026-04-17 11:38 46.20375 14.08134 36192 ft 408 kts 340°
2026-04-17 11:39 46.25733 14.05421 36201 ft 408 kts 340°
2026-04-17 11:39 46.31088 14.02713 36203 ft 407 kts 340°
2026-04-17 11:40 46.36433 14.00001 36215 ft 407 kts 340°
2026-04-17 11:40 46.41772 13.97280 36215 ft 407 kts 339°
2026-04-17 11:41 46.47027 13.94602 36214 ft 407 kts 339°
2026-04-17 11:41 46.52366 13.91880 36213 ft 407 kts 339°
2026-04-17 11:42 46.57705 13.89142 36221 ft 407 kts 339°
2026-04-17 11:42 46.63046 13.86401 36210 ft 407 kts 339°
2026-04-17 11:43 46.68346 13.83684 36209 ft 407 kts 339°
2026-04-17 11:43 46.73721 13.80926 36210 ft 407 kts 339°
2026-04-17 11:44 46.79024 13.78192 36219 ft 407 kts 339°
2026-04-17 11:44 46.84362 13.75436 36221 ft 406 kts 339°
2026-04-17 11:45 46.89685 13.72673 36223 ft 406 kts 339°
2026-04-17 11:45 46.95008 13.69899 36217 ft 406 kts 339°
2026-04-17 11:46 47.00329 13.67119 36238 ft 406 kts 339°
2026-04-17 11:46 47.05645 13.64348 36226 ft 405 kts 339°
2026-04-17 11:47 47.10962 13.61581 36228 ft 405 kts 339°
2026-04-17 11:47 47.16274 13.58807 36231 ft 406 kts 339°
2026-04-17 11:48 47.21587 13.56007 36246 ft 405 kts 339°
2026-04-17 11:48 47.26892 13.53208 36248 ft 405 kts 339°
2026-04-17 11:49 47.32196 13.50420 36244 ft 404 kts 339°
2026-04-17 11:49 47.37487 13.47622 36244 ft 404 kts 339°
2026-04-17 11:50 47.42773 13.44825 36237 ft 404 kts 339°
2026-04-17 11:50 47.48053 13.42016 36230 ft 403 kts 339°
2026-04-17 11:51 47.52444 13.39682 36224 ft 403 kts 339°
2026-04-17 11:51 47.57728 13.36874 36224 ft 404 kts 339°
2026-04-17 11:52 47.63014 13.34048 36227 ft 404 kts 339°
2026-04-17 11:52 47.68298 13.31218 36250 ft 403 kts 338°
2026-04-17 11:53 47.73548 13.28406 36248 ft 403 kts 338°
2026-04-17 11:53 47.78811 13.25576 36244 ft 402 kts 338°
2026-04-17 11:54 47.84074 13.22741 36246 ft 402 kts 338°
2026-04-17 11:54 47.89329 13.19912 36243 ft 402 kts 338°
2026-04-17 11:55 47.94521 13.17106 36240 ft 402 kts 338°
2026-04-17 11:55 47.99771 13.14260 36239 ft 401 kts 338°
2026-04-17 11:56 48.05022 13.11407 36235 ft 401 kts 338°
2026-04-17 11:56 48.10241 13.08563 36233 ft 401 kts 338°
2026-04-17 11:57 48.15486 13.05704 36233 ft 401 kts 338°
2026-04-17 11:57 48.20686 13.02741 36233 ft 400 kts 332°
2026-04-17 11:58 48.25167 12.97920 36231 ft 398 kts 314°
2026-04-17 11:58 48.28855 12.91717 36213 ft 399 kts 312°
2026-04-17 11:59 48.32538 12.85478 36219 ft 399 kts 312°
2026-04-17 11:59 48.36184 12.79283 36224 ft 400 kts 312°
2026-04-17 12:00 48.39866 12.73003 36244 ft 400 kts 312°
2026-04-17 12:00 48.43542 12.66724 36249 ft 400 kts 311°
2026-04-17 12:01 48.47212 12.60444 36249 ft 399 kts 311°
2026-04-17 12:01 48.50853 12.54201 36246 ft 399 kts 311°
2026-04-17 12:02 48.54512 12.47900 36245 ft 399 kts 311°
2026-04-17 12:02 48.58173 12.41591 36246 ft 399 kts 311°
2026-04-17 12:03 48.61806 12.35317 36246 ft 399 kts 311°
2026-04-17 12:03 48.65357 12.29160 36264 ft 399 kts 311°
2026-04-17 12:04 48.69002 12.22836 36243 ft 398 kts 311°
2026-04-17 12:04 48.72644 12.16439 36239 ft 398 kts 308°
2026-04-17 12:05 48.75196 12.09013 36236 ft 402 kts 289°
2026-04-17 12:05 48.76228 12.00715 36228 ft 404 kts 282°
2026-04-17 12:06 48.77139 11.92300 36222 ft 405 kts 282°
2026-04-17 12:06 48.78055 11.83878 36199 ft 405 kts 282°
2026-04-17 12:07 48.78950 11.75521 36202 ft 406 kts 282°
2026-04-17 12:07 48.79837 11.67065 36206 ft 406 kts 282°
2026-04-17 12:08 48.80724 11.58598 36212 ft 407 kts 282°
2026-04-17 12:08 48.81605 11.50116 36219 ft 407 kts 282°
2026-04-17 12:09 48.82471 11.41627 36211 ft 407 kts 281°
2026-04-17 12:09 48.83336 11.33074 36221 ft 408 kts 281°
2026-04-17 12:10 48.84593 11.24801 36223 ft 404 kts 294°
2026-04-17 12:10 48.87571 11.17727 36226 ft 401 kts 314°
2026-04-17 12:11 48.91680 11.11929 36230 ft 401 kts 317°
2026-04-17 12:11 48.93735 11.09057 36054 ft 403 kts 317°
2026-04-17 12:12 48.97961 11.03141 34177 ft 416 kts 317°
2026-04-17 12:12 49.00072 11.00182 33661 ft 410 kts 317°
2026-04-17 12:12 49.02162 10.97250 33092 ft 406 kts 317°
2026-04-17 12:12 49.04172 10.94429 32578 ft 402 kts 317°
2026-04-17 12:13 49.06268 10.91480 32018 ft 398 kts 317°
2026-04-17 12:13 49.08291 10.88628 31490 ft 394 kts 317°
2026-04-17 12:13 49.10297 10.85800 30958 ft 391 kts 317°
2026-04-17 12:13 49.12289 10.82990 30455 ft 388 kts 317°
2026-04-17 12:14 49.14241 10.80231 29895 ft 385 kts 317°
2026-04-17 12:14 49.16193 10.77461 29396 ft 380 kts 317°
2026-04-17 12:14 49.18119 10.74724 28902 ft 376 kts 317°
2026-04-17 12:14 49.20018 10.72016 28427 ft 371 kts 317°
2026-04-17 12:15 49.21828 10.69302 27961 ft 367 kts 315°
2026-04-17 12:15 49.23594 10.66527 27476 ft 362 kts 314°
2026-04-17 12:15 49.25321 10.63752 27032 ft 358 kts 314°
2026-04-17 12:15 49.27026 10.61002 26607 ft 354 kts 314°
2026-04-17 12:16 49.28717 10.58286 26170 ft 351 kts 314°
2026-04-17 12:16 49.30396 10.55602 25741 ft 348 kts 314°
2026-04-17 12:16 49.32064 10.52953 25314 ft 345 kts 314°
2026-04-17 12:16 49.33727 10.50320 24875 ft 343 kts 314°
2026-04-17 12:17 49.35319 10.47809 24451 ft 341 kts 314°
2026-04-17 12:17 49.36877 10.44892 24025 ft 341 kts 306°
2026-04-17 12:17 49.38256 10.41874 23665 ft 348 kts 306°
2026-04-17 12:17 49.39644 10.38832 23288 ft 348 kts 306°
2026-04-17 12:18 49.41030 10.35791 22937 ft 347 kts 306°
2026-04-17 12:18 49.42411 10.32761 22579 ft 345 kts 306°
2026-04-17 12:18 49.43785 10.29747 22241 ft 344 kts 305°
2026-04-17 12:18 49.45156 10.26738 21896 ft 343 kts 305°
2026-04-17 12:19 49.46519 10.23735 21543 ft 342 kts 305°
2026-04-17 12:19 49.47873 10.20743 21198 ft 340 kts 305°
2026-04-17 12:19 49.49220 10.17765 20850 ft 339 kts 305°
2026-04-17 12:19 49.50563 10.14798 20507 ft 337 kts 305°
2026-04-17 12:20 49.51899 10.11847 20169 ft 335 kts 305°
2026-04-17 12:20 49.53228 10.08906 19836 ft 334 kts 305°
2026-04-17 12:20 49.54549 10.05983 19489 ft 332 kts 305°
2026-04-17 12:20 49.55864 10.03073 19151 ft 330 kts 305°
2026-04-17 12:21 49.57169 10.00178 18815 ft 328 kts 305°
2026-04-17 12:21 49.58469 9.97288 18470 ft 327 kts 305°
2026-04-17 12:21 49.59759 9.94414 18113 ft 325 kts 305°
2026-04-17 12:21 49.61133 9.91727 17822 ft 324 kts 313°
2026-04-17 12:22 49.62670 9.89176 17559 ft 325 kts 313°
2026-04-17 12:22 49.64213 9.86637 17299 ft 324 kts 313°
2026-04-17 12:22 49.65755 9.84107 17038 ft 323 kts 313°
2026-04-17 12:22 49.67292 9.81582 16780 ft 322 kts 313°
2026-04-17 12:23 49.68822 9.79062 16521 ft 321 kts 313°
2026-04-17 12:23 49.70346 9.76550 16260 ft 320 kts 313°
2026-04-17 12:23 49.71867 9.74041 16014 ft 319 kts 313°
2026-04-17 12:23 49.73380 9.71537 15765 ft 318 kts 313°
2026-04-17 12:24 49.74887 9.69038 15521 ft 317 kts 313°
2026-04-17 12:24 49.76388 9.66546 15272 ft 316 kts 313°
2026-04-17 12:24 49.77884 9.64058 15036 ft 315 kts 313°
2026-04-17 12:24 49.79373 9.61576 14787 ft 314 kts 313°
2026-04-17 12:25 49.80861 9.59098 14550 ft 314 kts 313°
2026-04-17 12:25 49.82342 9.56631 14313 ft 313 kts 313°
2026-04-17 12:25 49.83823 9.54163 14078 ft 312 kts 313°
2026-04-17 12:25 49.85299 9.51700 13818 ft 312 kts 312°
2026-04-17 12:26 49.86771 9.49240 13552 ft 311 kts 312°
2026-04-17 12:26 49.88239 9.46782 13285 ft 310 kts 312°
2026-04-17 12:26 49.89689 9.44354 13085 ft 300 kts 312°
2026-04-17 12:26 49.91068 9.42047 12827 ft 287 kts 312°
2026-04-17 12:27 49.92416 9.39788 12594 ft 283 kts 312°
2026-04-17 12:27 49.93748 9.37559 12293 ft 281 kts 312°
2026-04-17 12:27 49.95073 9.35337 11977 ft 280 kts 312°
2026-04-17 12:27 49.96390 9.33125 11667 ft 278 kts 312°
2026-04-17 12:28 49.97701 9.30919 11357 ft 277 kts 312°
2026-04-17 12:28 49.99004 9.28727 11046 ft 275 kts 312°
2026-04-17 12:28 50.00292 9.26558 10507 ft 273 kts 312°
2026-04-17 12:28 50.01587 9.24377 10126 ft 274 kts 311°
2026-04-17 12:29 50.02875 9.22200 9784 ft 272 kts 311°
2026-04-17 12:29 50.04119 9.20096 9459 ft 261 kts 311°
2026-04-17 12:29 50.05319 9.18070 9127 ft 250 kts 311°
2026-04-17 12:29 50.06487 9.16091 8607 ft 248 kts 311°
2026-04-17 12:30 50.07649 9.14118 8065 ft 246 kts 311°
2026-04-17 12:30 50.08799 9.12159 7543 ft 244 kts 311°
2026-04-17 12:30 50.09947 9.10207 7189 ft 244 kts 311°
2026-04-17 12:30 50.11090 9.08270 6870 ft 241 kts 311°
2026-04-17 12:31 50.12167 9.06286 6333 ft 238 kts 297°
2026-04-17 12:31 50.12780 9.03915 5866 ft 237 kts 285°
2026-04-17 12:31 50.13239 9.01470 5656 ft 231 kts 284°
2026-04-17 12:31 50.13424 8.99091 5515 ft 216 kts 262°
2026-04-17 12:32 50.13033 8.96876 5392 ft 212 kts 249°
2026-04-17 12:32 50.12525 8.94724 5158 ft 211 kts 248°
2026-04-17 12:32 50.12017 8.92568 4885 ft 212 kts 249°
2026-04-17 12:32 50.11512 8.90419 4594 ft 209 kts 249°
2026-04-17 12:33 50.11015 8.88304 4313 ft 208 kts 249°
2026-04-17 12:33 50.10519 8.86195 4035 ft 207 kts 249°
2026-04-17 12:33 50.10026 8.84098 3763 ft 206 kts 249°
2026-04-17 12:33 50.09532 8.81997 3489 ft 206 kts 249°
2026-04-17 12:34 50.09038 8.79907 3213 ft 204 kts 249°
2026-04-17 12:34 50.08559 8.77877 2955 ft 194 kts 249°
2026-04-17 12:34 50.08106 8.75952 2701 ft 187 kts 249°
2026-04-17 12:34 50.07660 8.74067 2437 ft 184 kts 249°
2026-04-17 12:35 50.07220 8.72209 2200 ft 182 kts 249°
2026-04-17 12:35 50.06842 8.70344 1933 ft 181 kts 258°
2026-04-17 12:35 50.06726 8.69067 1730 ft 178 kts 261°
2026-04-17 12:35 50.06499 8.67248 1440 ft 164 kts 254°
2026-04-17 12:37 50.04135 8.57146 367 ft 121 kts 250°
2026-04-17 12:37 50.03907 8.56164 357 ft 72 kts 250°
2026-04-17 12:38 50.03789 8.55709 357 ft 23 kts 247°
2026-04-17 12:38 50.03827 8.55528 351 ft 15 kts 333°
2026-04-17 12:38 50.03868 8.55497 349 ft 0 kts 334°
2026-04-17 12:39 50.03875 8.55492 351 ft 2 kts 335°
2026-04-17 12:39 50.03883 8.55487 358 ft 0 kts 338°
2026-04-17 12:39 50.03884 8.55486 358 ft 0 kts 338°
2026-04-17 12:39 50.03888 8.55484 349 ft 3 kts 340°
2026-04-17 12:40 50.03926 8.55484 349 ft 6 kts 18°
2026-04-17 12:40 50.03956 8.55541 355 ft 8 kts 67°
2026-04-17 12:40 50.03978 8.55624 353 ft 7 kts 68°
2026-04-17 12:40 50.03994 8.55689 351 ft 6 kts 68°
2026-04-17 12:41 50.04010 8.55757 359 ft 11 kts 71°
2026-04-17 12:41 50.04041 8.55905 357 ft 18 kts 72°
2026-04-17 12:41 50.04087 8.56102 358 ft 20 kts 69°
2026-04-17 12:41 50.04140 8.56315 361 ft 22 kts 69°
2026-04-17 12:42 50.04192 8.56537 358 ft 22 kts 70°
2026-04-17 12:42 50.04244 8.56763 361 ft 22 kts 70°
2026-04-17 12:42 50.04296 8.56990 359 ft 23 kts 70°
2026-04-17 12:42 50.04353 8.57224 361 ft 23 kts 70°
2026-04-17 12:43 50.04408 8.57461 361 ft 23 kts 70°
2026-04-17 12:43 50.04463 8.57693 366 ft 22 kts 69°
2026-04-17 12:43 50.04517 8.57918 368 ft 16 kts 70°
2026-04-17 12:43 50.04586 8.58023 361 ft 17 kts
2026-04-17 12:44 50.04710 8.57959 362 ft 20 kts 341°
2026-04-17 12:44 50.04816 8.57890 364 ft 15 kts 325°
2026-04-17 12:44 50.04887 8.57853 363 ft 8 kts 24°
2026-04-17 12:44 50.04912 8.57871 360 ft 1 kts 24°
2026-04-17 12:45 50.04921 8.57877 359 ft 0 kts 22°